When you browse on this site, cookies collect data to enhance your experience and personalize the content and advertising you see.
Visit our Privacy Policy to learn more. By continuing to use the site, you agree to this use of cookies and data.
  • In Schweiz
  • Länderverzeichnis
  • Für 7 Tage
  • Wassertemperatur
  • Wetterkarte
  • Widgets
  • user-avatar
    Anmelden

    Stündliche Wetter Bern

    Heute, 21 Oktober, Montag

    Zeit Temperatur Niederschläge Wind Luftdruck Luftfeuchtigkeit
    00:00 +13°C° 0 mm 1 m/S 713 mmHg 90%
    01:00 +13°C° 1.6 mm 1 m/S 713 mmHg 92%
    02:00 +13°C° 1.6 mm 1 m/S 713 mmHg 95%
    03:00 +13°C° 1.6 mm 1 m/S 713 mmHg 97%
    04:00 +12°C° 0.1 mm 0 m/S 714 mmHg 97%
    05:00 +12°C° 0.1 mm 0 m/S 715 mmHg 97%
    06:00 +12°C° 0.1 mm 0 m/S 715 mmHg 97%
    07:00 +13°C° 0 mm 0 m/S 715 mmHg 95%
    08:00 +13°C° 0 mm 0 m/S 716 mmHg 94%
    09:00 +14°C° 0 mm 0 m/S 716 mmHg 93%
    10:00 +15°C° 0.1 mm 1 m/S 717 mmHg 92%
    11:00 +16°C° 0.1 mm 1 m/S 717 mmHg 90%
    12:00 +16°C° 0.1 mm 1 m/S 718 mmHg 89%
    13:00 +15°C° 0.2 mm 1 m/S 717 mmHg 91%
    14:00 +15°C° 0.2 mm 1 m/S 717 mmHg 93%
    15:00 +15°C° 0.2 mm 1 m/S 717 mmHg 95%
    16:00 +14°C° 0.3 mm 1 m/S 717 mmHg 95%
    17:00 +14°C° 0.3 mm 1 m/S 718 mmHg 96%
    18:00 +13°C° 0.3 mm 1 m/S 718 mmHg 96%
    19:00 +13°C° 0.1 mm 1 m/S 718 mmHg 96%
    20:00 +13°C° 0.1 mm 1 m/S 718 mmHg 95%
    21:00 +12°C° 0.1 mm 0 m/S 718 mmHg 95%
    22:00 +12°C° 0 mm 1 m/S 719 mmHg 95%
    23:00 +12°C° 0 mm 1 m/S 719 mmHg 95%

    Morgen, 22 Oktober, Dienstag

    Zeit Temperatur Niederschläge Wind Luftdruck Luftfeuchtigkeit
    00:00 +12°C° 0 mm 1 m/S 719 mmHg 95%
    01:00 +12°C° 0 mm 1 m/S 719 mmHg 95%
    02:00 +12°C° 0 mm 1 m/S 718 mmHg 95%
    03:00 +10°C° 0 mm 0 m/S 718 mmHg 95%
    04:00 +11°C° 0 mm 1 m/S 718 mmHg 95%
    05:00 +11°C° 0 mm 1 m/S 718 mmHg 95%
    06:00 +11°C° 0 mm 1 m/S 718 mmHg 95%
    07:00 +12°C° 0 mm 1 m/S 718 mmHg 93%
    08:00 +14°C° 0 mm 1 m/S 718 mmHg 91%
    09:00 +15°C° 0 mm 1 m/S 719 mmHg 89%
    10:00 +16°C° 0 mm 2 m/S 719 mmHg 86%
    11:00 +16°C° 0 mm 2 m/S 719 mmHg 82%
    12:00 +17°C° 0 mm 2 m/S 719 mmHg 79%
    13:00 +17°C° 0 mm 2 m/S 718 mmHg 81%
    14:00 +17°C° 0 mm 2 m/S 718 mmHg 83%
    15:00 +16°C° 0 mm 3 m/S 717 mmHg 84%
    16:00 +15°C° 0 mm 2 m/S 717 mmHg 87%
    17:00 +14°C° 0 mm 2 m/S 717 mmHg 90%
    18:00 +13°C° 0 mm 2 m/S 717 mmHg 93%
    19:00 +13°C° 0 mm 2 m/S 717 mmHg 93%
    20:00 +13°C° 0 mm 2 m/S 717 mmHg 93%
    21:00 +13°C° 0 mm 2 m/S 717 mmHg 93%
    22:00 +12°C° 0 mm 1 m/S 717 mmHg 92%
    23:00 +12°C° 0 mm 1 m/S 717 mmHg 92%

    übermorgen, 23 Oktober, Mittwoch

    Zeit Temperatur Niederschläge Wind Luftdruck Luftfeuchtigkeit
    00:00 +12°C° 0 mm 1 m/S 716 mmHg 92%
    01:00 +11°C° 0 mm 1 m/S 716 mmHg 91%
    02:00 +11°C° 0 mm 1 m/S 715 mmHg 91%
    03:00 +11°C° 0 mm 1 m/S 715 mmHg 91%
    04:00 +11°C° 0 mm 1 m/S 715 mmHg 90%
    05:00 +11°C° 0 mm 1 m/S 715 mmHg 89%
    06:00 +11°C° 0 mm 1 m/S 714 mmHg 88%
    07:00 +12°C° 0 mm 1 m/S 714 mmHg 84%
    08:00 +14°C° 0 mm 1 m/S 714 mmHg 79%
    09:00 +16°C° 0 mm 1 m/S 714 mmHg 75%
    10:00 +18°C° 0 mm 1 m/S 714 mmHg 70%
    11:00 +20°C° 0 mm 1 m/S 714 mmHg 65%
    12:00 +21°C° 0 mm 1 m/S 714 mmHg 60%
    13:00 +21°C° 0 mm 1 m/S 713 mmHg 64%
    14:00 +21°C° 0 mm 1 m/S 713 mmHg 68%
    15:00 +20°C° 0 mm 1 m/S 712 mmHg 73%
    16:00 +18°C° 0 mm 1 m/S 712 mmHg 76%
    17:00 +16°C° 0 mm 2 m/S 712 mmHg 79%
    18:00 +14°C° 0 mm 2 m/S 712 mmHg 81%
    19:00 +13°C° 0 mm 1 m/S 712 mmHg 81%
    20:00 +13°C° 0 mm 1 m/S 712 mmHg 80%
    21:00 +13°C° 0 mm 1 m/S 712 mmHg 79%
    22:00 +13°C° 0 mm 1 m/S 712 mmHg 79%
    23:00 +13°C° 0 mm 1 m/S 712 mmHg 79%

    24 Oktober, Donnerstag

    Zeit Temperatur Niederschläge Wind Luftdruck Luftfeuchtigkeit
    00:00 +13°C° 0 mm 1 m/S 712 mmHg 78%
    01:00 +12°C° 0 mm 1 m/S 712 mmHg 79%
    02:00 +12°C° 0 mm 1 m/S 712 mmHg 80%
    03:00 +12°C° 0 mm 1 m/S 712 mmHg 80%
    04:00 +12°C° 0 mm 1 m/S 712 mmHg 81%
    05:00 +12°C° 0 mm 1 m/S 712 mmHg 82%
    06:00 +12°C° 0 mm 1 m/S 712 mmHg 83%
    07:00 +13°C° 0 mm 1 m/S 712 mmHg 78%
    08:00 +15°C° 0 mm 1 m/S 713 mmHg 73%
    09:00 +16°C° 0 mm 0 m/S 713 mmHg 68%
    10:00 +19°C° 0 mm 1 m/S 713 mmHg 66%
    11:00 +20°C° 0 mm 1 m/S 714 mmHg 63%
    12:00 +21°C° 0 mm 1 m/S 714 mmHg 60%
    13:00 +20°C° 0 mm 1 m/S 714 mmHg 65%
    14:00 +20°C° 0 mm 1 m/S 714 mmHg 70%
    15:00 +19°C° 0 mm 1 m/S 714 mmHg 75%
    16:00 +18°C° 0.1 mm 1 m/S 714 mmHg 81%
    17:00 +14°C° 0.1 mm 0 m/S 714 mmHg 86%
    18:00 +13°C° 0.1 mm 0 m/S 714 mmHg 91%
    19:00 +13°C° 0 mm 0 m/S 715 mmHg 91%
    20:00 +13°C° 0 mm 0 m/S 715 mmHg 91%
    21:00 +12°C° 0 mm 0 m/S 716 mmHg 91%
    22:00 +12°C° 0.1 mm 0 m/S 716 mmHg 92%
    23:00 +12°C° 0.1 mm 0 m/S 716 mmHg 92%

    25 Oktober, Freitag

    Zeit Temperatur Niederschläge Wind Luftdruck Luftfeuchtigkeit
    00:00 +12°C° 0.1 mm 0 m/S 716 mmHg 92%
    01:00 +12°C° 0.1 mm 0 m/S 717 mmHg 92%
    02:00 +12°C° 0.1 mm 0 m/S 717 mmHg 92%
    03:00 +13°C° 0.1 mm 0 m/S 717 mmHg 92%
    04:00 +12°C° 0.1 mm 0 m/S 717 mmHg 93%
    05:00 +12°C° 0.1 mm 0 m/S 717 mmHg 93%
    06:00 +12°C° 0.1 mm 1 m/S 717 mmHg 94%
    07:00 +13°C° 0 mm 1 m/S 718 mmHg 92%
    08:00 +14°C° 0 mm 1 m/S 718 mmHg 91%
    09:00 +15°C° 0 mm 1 m/S 718 mmHg 89%
    10:00 +16°C° 0 mm 1 m/S 718 mmHg 87%
    11:00 +16°C° 0 mm 1 m/S 718 mmHg 84%
    12:00 +18°C° 0 mm 1 m/S 718 mmHg 82%
    13:00 +18°C° 0 mm 1 m/S 718 mmHg 83%
    14:00 +16°C° 0 mm 2 m/S 718 mmHg 84%
    15:00 +16°C° 0 mm 2 m/S 718 mmHg 85%
    16:00 +15°C° 0 mm 1 m/S 718 mmHg 89%
    17:00 +14°C° 0 mm 1 m/S 718 mmHg 92%
    18:00 +13°C° 0 mm 1 m/S 718 mmHg 96%
    19:00 +13°C° 0 mm 1 m/S 718 mmHg 95%
    20:00 +12°C° 0 mm 1 m/S 718 mmHg 95%
    21:00 +11°C° 0 mm 0 m/S 718 mmHg 94%
    22:00 +11°C° 0 mm 0 m/S 718 mmHg 93%
    23:00 +11°C° 0 mm 0 m/S 718 mmHg 91%

    26 Oktober, Samstag

    Zeit Temperatur Niederschläge Wind Luftdruck Luftfeuchtigkeit
    00:00 +10°C° 0 mm 0 m/S 718 mmHg 90%
    01:00 +11°C° 0 mm 1 m/S 718 mmHg 88%
    02:00 +11°C° 0 mm 1 m/S 718 mmHg 87%
    03:00 +11°C° 0 mm 1 m/S 717 mmHg 85%
    04:00 +11°C° 0 mm 1 m/S 717 mmHg 84%
    05:00 +11°C° 0 mm 1 m/S 718 mmHg 82%
    06:00 +11°C° 0 mm 1 m/S 718 mmHg 80%
    07:00 +13°C° 0 mm 1 m/S 718 mmHg 76%
    08:00 +15°C° 0 mm 1 m/S 718 mmHg 72%
    09:00 +15°C° 0 mm 0 m/S 719 mmHg 68%
    10:00 +19°C° 0 mm 1 m/S 719 mmHg 63%
    11:00 +20°C° 0 mm 1 m/S 719 mmHg 59%
    12:00 +22°C° 0 mm 1 m/S 719 mmHg 54%
    13:00 +21°C° 0 mm 1 m/S 718 mmHg 60%
    14:00 +19°C° 0 mm 0 m/S 718 mmHg 66%
    15:00 +18°C° 0 mm 0 m/S 718 mmHg 72%
    16:00 +16°C° 0 mm 0 m/S 718 mmHg 75%
    17:00 +16°C° 0 mm 1 m/S 718 mmHg 78%
    18:00 +14°C° 0 mm 1 m/S 718 mmHg 81%
    19:00 +14°C° 0 mm 1 m/S 718 mmHg 80%
    20:00 +13°C° 0 mm 1 m/S 719 mmHg 78%
    21:00 +13°C° 0 mm 1 m/S 719 mmHg 76%
    22:00 +13°C° 0 mm 1 m/S 719 mmHg 76%
    23:00 +13°C° 0 mm 1 m/S 719 mmHg 75%

    27 Oktober, Sonntag

    Zeit Temperatur Niederschläge Wind Luftdruck Luftfeuchtigkeit
    00:00 +12°C° 0 mm 1 m/S 719 mmHg 74%
    01:00 +12°C° 0 mm 1 m/S 719 mmHg 74%
    02:00 +12°C° 0 mm 1 m/S 719 mmHg 74%
    03:00 +12°C° 0 mm 1 m/S 719 mmHg 74%
    04:00 +10°C° 0 mm 0 m/S 719 mmHg 75%
    05:00 +10°C° 0 mm 0 m/S 719 mmHg 75%
    06:00 +10°C° 0 mm 0 m/S 719 mmHg 75%
    07:00 +12°C° 0 mm 0 m/S 719 mmHg 71%
    08:00 +14°C° 0 mm 0 m/S 719 mmHg 67%
    09:00 +16°C° 0 mm 0 m/S 719 mmHg 62%
    10:00 +19°C° 0 mm 1 m/S 719 mmHg 60%
    11:00 +20°C° 0 mm 1 m/S 719 mmHg 58%
    12:00 +21°C° 0 mm 1 m/S 719 mmHg 56%
    13:00 +20°C° 0 mm 1 m/S 719 mmHg 62%
    14:00 +20°C° 0 mm 1 m/S 719 mmHg 68%
    15:00 +19°C° 0 mm 1 m/S 718 mmHg 73%
    16:00 +16°C° 0 mm 1 m/S 718 mmHg 79%
    17:00 +15°C° 0 mm 1 m/S 718 mmHg 85%
    18:00 +13°C° 0 mm 1 m/S 718 mmHg 91%
    19:00 +13°C° 0 mm 1 m/S 718 mmHg 90%
    20:00 +12°C° 0 mm 1 m/S 718 mmHg 89%
    21:00 +12°C° 0 mm 1 m/S 718 mmHg 88%
    22:00 +12°C° 0 mm 1 m/S 718 mmHg 87%
    23:00 +11°C° 0 mm 0 m/S 718 mmHg 87%
    Mehr zeigen